[[{"header":{"parameterUnit":"m.s-1","parameterCategory":1,"la1":30.2991,"la2":30.254,"lo1":-89.0895,"lo2":-89.0444,"dy":0.0017,"dx":0.0017,"nx":28,"ny":28,"refTime":"2024-02-16T09:00:00:Z","depth":0,"parameterNumber":2,"parameterNumberName":"U-component_of_WINDS"},"data":[0,0,0,0,0,0,0,0,0,0,0,0,0,0,0,0,0,0,0,0,0,0,0,0,0,0,0,0,0,0,0,0,0,0,0,0,0,0,0,0,0,0,0,0,0,0,0,0,0,0,0,0,0,0,0,0,0,0,-2.0651,-2.0652,0,-2.0677,-2.0677,-2.0678,-2.0618,-2.0616,-2.0614,-2.0612,-2.0638,-2.0641,-2.0643,0,0,0,0,0,0,0,0,0,0,0,0,0,-2.055,-2.0552,-2.0651,-2.0652,-2.0652,-2.0677,-2.0677,-2.0678,-2.0618,-2.0616,-2.0613,-2.0611,-2.0637,-2.064,-2.0643,0,0,0,0,0,0,0,0,0,0,0,0,0,-2.0587,-2.0553,-2.0651,-2.0625,-2.0623,-2.0677,-2.0677,-2.0678,-2.0619,-2.0616,-2.0613,-2.061,-2.0636,-2.064,-2.0644,-2.0724,0,0,-2.0655,-2.0657,0,0,0,0,0,0,0,0,-2.0585,-2.059,-2.0629,-2.0627,-2.0625,-2.0641,-2.0651,-2.0693,-2.0619,-2.062,-2.0612,-2.0609,-2.0642,-2.0645,-2.0656,-2.0725,-2.0726,-2.0655,-2.0658,-2.0659,-2.066,0,0,0,0,0,0,0,-2.0582,-2.0589,-2.0661,-2.0629,-2.0627,-2.0612,-2.0614,-2.0659,-2.0647,-2.062,-2.0616,-2.062,-2.064,-2.0652,-2.0656,-2.0726,-2.0655,-2.0659,-2.0661,-2.0662,-2.0862,-2.0865,0,0,0,0,0,0,-2.0583,-2.0587,-2.0661,-2.0662,-2.0597,-2.0616,-2.0618,-2.0639,-2.0646,-2.0644,-2.0622,-2.0617,-2.0647,-2.0652,-2.0657,-2.0751,-2.0659,-2.0663,-2.0665,-2.0859,-2.0863,-2.0866,0,0,0,0,0,0,-2.0581,-2.059,-2.066,-2.0624,-2.0631,-2.0621,-2.0644,-2.0641,-2.0653,-2.0647,-2.0645,-2.0637,-2.0645,-2.0651,-2.0707,-2.0751,-2.0664,-2.0668,-2.0855,-2.086,-2.0865,-2.0941,0,0,0,0,0,0,-2.0578,-2.059,-2.0621,-2.0625,-2.0633,-2.0711,-2.0647,-2.0643,-2.066,-2.0653,-2.0661,-2.0659,-2.0643,-2.0702,-2.0711,-2.0755,-2.0671,-2.0852,-2.0858,-2.0863,-2.0934,-2.0947,-2.0958,0,0,0,0,0,-2.0575,-2.0641,-2.0622,-2.0632,-2.0672,-2.0713,-2.0718,-2.0699,-2.0664,-2.0694,-2.069,-2.0659,-2.0744,-2.0708,-2.0718,-2.0763,-2.0849,-2.0856,-2.0863,-2.0929,-2.0945,-2.0958,0,0,0,0,0,0,-2.0642,-2.0641,-2.0621,-2.069,-2.0702,-2.0703,-2.0741,-2.0716,-2.0739,-2.0732,-2.0706,-2.0708,-2.0769,-2.0771,-2.0731,-2.0841,-2.0791,-2.08,-2.0838,-2.0853,-2.0865,-2.0863,-2.0674,0,0,0,0,0,-2.0665,-2.0699,-2.0696,-2.0757,-2.0765,-2.0752,-2.0769,-2.0753,-2.0765,-2.077,-2.077,-2.0783,-2.0812,-2.0832,-2.0859,-2.0933,-2.0934,-2.0969,-2.0981,-2.0991,-2.1,-2.104,-2.1055,-2.0889,-2.0889,-2.0889,0,0,-2.0713,-2.0716,-2.074,-2.0771,-2.0779,-2.0815,-2.0757,-2.0797,-2.0824,-2.0776,-2.0829,-2.083,-2.0842,-2.0907,-2.0936,-2.0911,-2.1046,-2.1,-2.1008,-2.1011,-2.1048,-2.1064,-2.1078,-2.0894,-2.0893,-2.0892,0,0,-2.0818,-2.0824,-2.0876,-2.0885,-2.0897,-2.0888,-2.09,-2.0905,-2.0904,-2.0956,-2.0921,-2.0952,-2.1003,-2.1013,-2.1025,-2.1133,-2.1106,-2.1142,-2.1207,-2.1245,-2.1259,-2.127,-2.1309,-2.1324,-2.1151,-2.1151,-2.1151,0,-2.0876,-2.0929,-2.0906,-2.0949,-2.0964,-2.0922,-2.0974,-2.0983,-2.1004,-2.1015,-2.0986,-2.1049,-2.1054,-2.1122,-2.1148,-2.1159,-2.1173,-2.1142,-2.1258,-2.127,-2.128,-2.1317,-2.1332,-2.1155,-2.1155,-2.1154,-2.1154,0,-2.1,-2.1037,-2.1077,-2.1098,-2.1117,-2.1165,-2.1148,-2.117,-2.1152,-2.1146,-2.12,-2.1204,-2.1231,-2.1246,-2.1228,-2.1311,-2.1295,-2.1263,-2.1212,-2.1301,-2.1335,-2.1349,-2.1162,-2.116,-2.1159,-2.1158,0,0,-2.115,-2.1157,-2.1172,-2.1181,-2.1191,-2.1219,-2.1264,-2.129,-2.131,-2.1325,-2.1362,-2.1406,-2.1376,-2.1389,-2.1372,-2.1406,-2.1492,-2.137,-2.137,-2.1393,-2.1584,-2.1609,-2.1626,-2.1473,-2.1476,-2.1478,-2.1583,0,-2.1255,-2.1333,-2.1313,-2.1391,-2.1425,-2.1384,-2.1423,-2.1433,-2.1429,-2.1456,-2.145,-2.1482,-2.144,-2.1448,-2.148,-2.1475,-2.153,-2.1467,-2.1508,-2.151,-2.1508,-2.1644,-2.1671,-2.177,-2.1596,-2.1599,-2.16,0,-2.1389,-2.1409,-2.149,-2.1494,-2.1507,-2.1543,-2.1565,-2.1592,-2.1602,-2.1596,-2.1611,-2.1587,-2.1631,-2.1578,-2.1639,-2.1596,-2.1611,-2.1612,-2.1615,-2.1619,-2.1562,-2.1653,-2.1801,-2.1817,-2.1621,-2.1619,-2.1618,0,-2.1492,-2.1539,-2.1593,-2.1602,-2.1608,-2.1634,-2.1637,-2.1644,-2.1661,-2.168,-2.1691,-2.1715,-2.1728,-2.1747,-2.173,-2.1693,-2.1793,-2.1739,-2.179,-2.179,-2.1814,-2.1813,-2.1968,-2.1822,-2.1822,-2.1821,-2.1821,0,-2.1612,-2.1664,-2.164,-2.1674,-2.173,-2.1705,-2.1761,-2.176,-2.1767,-2.1799,-2.1765,-2.1796,-2.1771,-2.18,-2.1786,-2.1838,-2.1844,-2.1841,-2.1837,-2.1845,-2.1845,-2.1856,-2.1849,-2.1825,-2.1824,-2.1824,-2.1823,0,-2.1737,-2.1723,-2.178,-2.178,-2.1782,-2.1823,-2.1823,-2.1854,-2.1846,-2.1887,-2.1896,-2.1883,-2.1915,-2.1899,-2.1933,-2.1923,-2.1991,-2.1977,-2.1988,-2.1985,-2.2037,-2.2032,-2.2205,-2.2226,-2.2065,-2.2067,-2.2068,0,-2.1816,-2.1854,-2.1859,-2.1878,-2.1884,-2.1915,-2.1932,-2.1909,-2.1928,-2.1942,-2.1972,-2.2,-2.2023,-2.2076,-2.2069,-2.2094,-2.2082,-2.214,-2.2085,-2.2092,-2.2084,-2.2082,-2.2086,-2.2152,-2.2154,-2.2155,-2.2157,0,-2.1957,-2.1948,-2.1974,-2.1997,-2.2019,-2.2036,-2.205,-2.2068,-2.2045,-2.2068,-2.2101,-2.2118,-2.2151,-2.2181,-2.2202,-2.2205,-2.2178,-2.2174,-2.2187,-2.2196,-2.2201,-2.22,-2.202,-2.217,-2.2169,-2.2168,-2.2167,-2.2167,-2.2062,-2.2094,-2.2102,-2.2132,-2.214,-2.2154,-2.2184,-2.2179,-2.2205,-2.2231,-2.2215,-2.2254,-2.2262,-2.2288,-2.2294,-2.2323,-2.23,-2.2319,-2.2324,-2.2329,-2.2337,-2.2195,-2.2327,-2.2327,-2.2326,-2.2326,-2.2326,0,-2.2202,-2.2205,-2.2232,-2.2254,-2.2277,-2.2248,-2.2262,-2.2284,-2.2318,-2.2328,-2.235,-2.2387,-2.2415,-2.241,-2.2435,-2.246,-2.2448,-2.2467,-2.2466,-2.2467,-2.2356,-2.2342,-2.2477,-2.2477,-2.2477,-2.2477,-2.2477,-2.2476,-2.2278,-2.2331,-2.2323,-2.238,-2.2382,-2.2419,-2.243,-2.2442,-2.245,-2.2493,-2.2516,-2.2513,-2.2517,-2.2542,-2.2566,-2.2564,-2.2575,-2.26,-2.2593,-2.249,-2.2475,-2.2461,-2.2448,-2.2602,-2.2602,-2.2702,-2.2703,-2.2704]},{"header":{"parameterUnit":"m.s-1","parameterCategory":1,"la1":30.2991,"la2":30.254,"lo1":-89.0895,"lo2":-89.0444,"dy":0.0017,"dx":0.0017,"nx":28,"ny":28,"refTime":"2024-02-16T09:00:00:Z","depth":0,"parameterNumber":3,"parameterNumberName":"V-component_of_WINDS"},"data":[0,0,0,0,0,0,0,0,0,0,0,0,0,0,0,0,0,0,0,0,0,0,0,0,0,0,0,0,0,0,0,0,0,0,0,0,0,0,0,0,0,0,0,0,0,0,0,0,0,0,0,0,0,0,0,0,0,0,-8.657,-8.657,0,-8.6613,-8.6614,-8.6614,-8.6506,-8.6503,-8.6499,-8.6496,-8.6534,-8.6538,-8.6543,0,0,0,0,0,0,0,0,0,0,0,0,0,-8.6387,-8.6391,-8.657,-8.657,-8.6571,-8.6613,-8.6614,-8.6614,-8.6507,-8.6502,-8.6498,-8.6494,-8.6533,-8.6538,-8.6543,0,0,0,0,0,0,0,0,0,0,0,0,0,-8.6452,-8.6393,-8.657,-8.6522,-8.6519,-8.6613,-8.6614,-8.6614,-8.6507,-8.6502,-8.6497,-8.6492,-8.6531,-8.6537,-8.6544,-8.6684,0,0,-8.6563,-8.6566,0,0,0,0,0,0,0,0,-8.6449,-8.6459,-8.6529,-8.6526,-8.6522,-8.6549,-8.6563,-8.6638,-8.6509,-8.6511,-8.6496,-8.649,-8.6543,-8.6548,-8.6567,-8.6686,-8.6688,-8.6563,-8.6567,-8.657,-8.6572,0,0,0,0,0,0,0,-8.6444,-8.6457,-8.6587,-8.653,-8.6526,-8.6497,-8.6501,-8.6577,-8.6555,-8.6511,-8.6503,-8.651,-8.654,-8.6561,-8.6567,-8.6688,-8.6563,-8.6569,-8.6573,-8.6575,-8.6924,-8.693,0,0,0,0,0,0,-8.6447,-8.6454,-8.6585,-8.6588,-8.6472,-8.6504,-8.6508,-8.6545,-8.6554,-8.655,-8.6514,-8.6505,-8.6553,-8.656,-8.6568,-8.6733,-8.657,-8.6576,-8.6579,-8.6919,-8.6926,-8.6932,0,0,0,0,0,0,-8.6443,-8.646,-8.6584,-8.6519,-8.6532,-8.6513,-8.6555,-8.6549,-8.657,-8.6557,-8.6552,-8.6541,-8.6549,-8.6559,-8.6657,-8.6733,-8.6579,-8.6584,-8.6912,-8.6921,-8.6929,-8.7065,0,0,0,0,0,0,-8.6439,-8.6459,-8.6514,-8.6521,-8.6536,-8.6673,-8.656,-8.6553,-8.6582,-8.657,-8.658,-8.6577,-8.6546,-8.6648,-8.6663,-8.6739,-8.6589,-8.6905,-8.6916,-8.6926,-8.7053,-8.7077,-8.7097,0,0,0,0,0,-8.6432,-8.6549,-8.6517,-8.6533,-8.6604,-8.6678,-8.6686,-8.6651,-8.6589,-8.6642,-8.6634,-8.6576,-8.6723,-8.6659,-8.6675,-8.6754,-8.69,-8.6913,-8.6925,-8.7044,-8.7072,-8.7096,0,0,0,0,0,0,-8.6548,-8.6549,-8.6513,-8.6636,-8.6658,-8.666,-8.6726,-8.6682,-8.6721,-8.6707,-8.666,-8.6663,-8.6769,-8.6771,-8.67,-8.689,-8.6801,-8.6817,-8.6885,-8.6912,-8.6933,-8.693,-8.6594,0,0,0,0,0,-8.6588,-8.665,-8.6646,-8.6755,-8.6768,-8.6746,-8.6776,-8.6747,-8.6767,-8.6775,-8.6774,-8.6794,-8.6844,-8.6878,-8.6924,-8.7053,-8.7053,-8.7116,-8.7137,-8.7155,-8.7169,-8.7238,-8.7265,-8.6972,-8.6972,-8.6972,0,0,-8.6671,-8.6679,-8.672,-8.6778,-8.6792,-8.6855,-8.6754,-8.6825,-8.6871,-8.6785,-8.6878,-8.6878,-8.6897,-8.7011,-8.7061,-8.7016,-8.7251,-8.7171,-8.7185,-8.719,-8.7253,-8.7281,-8.7306,-8.6981,-8.6979,-8.6978,0,0,-8.6854,-8.6867,-8.6959,-8.6976,-8.6999,-8.6983,-8.7006,-8.7015,-8.7012,-8.7104,-8.7042,-8.7094,-8.7182,-8.7199,-8.7218,-8.741,-8.7358,-8.7426,-8.7539,-8.7606,-8.7629,-8.7649,-8.7717,-8.7742,-8.744,-8.7441,-8.7441,0,-8.6953,-8.7049,-8.7011,-8.7088,-8.7114,-8.7043,-8.7134,-8.7151,-8.7187,-8.7207,-8.7156,-8.7266,-8.7273,-8.739,-8.7437,-8.7456,-8.7479,-8.7424,-8.7629,-8.7649,-8.7667,-8.7731,-8.7757,-8.7449,-8.7448,-8.7447,-8.7446,0,-8.7169,-8.7236,-8.7307,-8.7347,-8.7382,-8.7465,-8.7439,-8.7478,-8.7447,-8.7436,-8.7531,-8.7538,-8.7584,-8.761,-8.7579,-8.7723,-8.7694,-8.7638,-8.7546,-8.7704,-8.7763,-8.7787,-8.746,-8.7457,-8.7455,-8.7453,0,0,-8.7425,-8.7445,-8.7471,-8.7489,-8.751,-8.7559,-8.7639,-8.7687,-8.7721,-8.7749,-8.7813,-8.789,-8.7838,-8.7861,-8.7831,-8.789,-8.8041,-8.7826,-8.7825,-8.7865,-8.82,-8.8242,-8.8272,-8.8008,-8.8012,-8.8016,-8.8198,0,-8.7606,-8.7746,-8.7715,-8.7852,-8.7913,-8.7846,-8.7916,-8.7935,-8.7928,-8.7977,-8.7967,-8.8023,-8.795,-8.7964,-8.8019,-8.8011,-8.8108,-8.7998,-8.8066,-8.8069,-8.8063,-8.8303,-8.8347,-8.8519,-8.8221,-8.8225,-8.8228,0,-8.7835,-8.7875,-8.8019,-8.8031,-8.8055,-8.8118,-8.8159,-8.8208,-8.8228,-8.8218,-8.8245,-8.8204,-8.8281,-8.8191,-8.8296,-8.8222,-8.8248,-8.8249,-8.8254,-8.8258,-8.8158,-8.8313,-8.8573,-8.8599,-8.8264,-8.8261,-8.8259,0,-8.8007,-8.8096,-8.8193,-8.821,-8.8227,-8.8273,-8.8281,-8.8297,-8.8328,-8.8363,-8.8382,-8.8425,-8.8449,-8.8483,-8.8453,-8.839,-8.8564,-8.847,-8.8556,-8.8557,-8.8595,-8.8593,-8.8863,-8.8614,-8.8613,-8.8613,-8.8612,0,-8.8212,-8.8303,-8.8271,-8.8331,-8.843,-8.8394,-8.8492,-8.8492,-8.8507,-8.8565,-8.8509,-8.8563,-8.8522,-8.8573,-8.8551,-8.8641,-8.8652,-8.8645,-8.8638,-8.865,-8.8651,-8.8666,-8.8653,-8.862,-8.8618,-8.8617,-8.8616,0,-8.842,-8.8403,-8.8505,-8.8514,-8.8518,-8.8591,-8.8596,-8.8651,-8.864,-8.8714,-8.8729,-8.8711,-8.8769,-8.8743,-8.8803,-8.8787,-8.8904,-8.8881,-8.8898,-8.8892,-8.8979,-8.8971,-8.9268,-8.9304,-8.9032,-8.9035,-8.9037,0,-8.8552,-8.8621,-8.8637,-8.8673,-8.8687,-8.8745,-8.8776,-8.8743,-8.8778,-8.8807,-8.8858,-8.8911,-8.8951,-8.9045,-8.9036,-8.9082,-8.9059,-8.916,-8.9065,-8.9075,-8.906,-8.9056,-8.9062,-8.9178,-8.9181,-8.9184,-8.9186,0,-8.8787,-8.8776,-8.8825,-8.8872,-8.8913,-8.8947,-8.8976,-8.9008,-8.8976,-8.9018,-8.9077,-8.9109,-8.917,-8.9223,-8.9263,-8.9269,-8.9223,-8.9216,-8.9238,-8.9251,-8.9258,-8.9255,-8.8949,-8.9209,-8.9207,-8.9205,-8.9204,-8.9203,-8.896,-8.9019,-8.904,-8.9097,-8.9116,-8.9145,-8.9198,-8.9195,-8.9244,-8.9294,-8.927,-8.9339,-8.9357,-8.9406,-8.9419,-8.9471,-8.9431,-8.9463,-8.9471,-8.948,-8.9491,-8.9251,-8.9478,-8.9477,-8.9477,-8.9476,-8.9475,0,-8.9192,-8.9204,-8.9257,-8.9301,-8.9346,-8.9301,-8.9331,-8.937,-8.9432,-8.9455,-8.9496,-8.9564,-8.9615,-8.9612,-8.9658,-8.9701,-8.968,-8.9714,-8.971,-8.9712,-8.9524,-8.95,-8.973,-8.973,-8.973,-8.9729,-8.9729,-8.9729,-8.9318,-8.9415,-8.9406,-8.9511,-8.952,-8.9589,-8.961,-8.9636,-8.9654,-8.9733,-8.9776,-8.9775,-8.9786,-8.9833,-8.9878,-8.9875,-8.9895,-8.9936,-8.9926,-8.975,-8.9725,-8.9701,-8.9678,-8.9941,-8.9941,-9.0109,-9.0111,-9.0112]}]]